DELTA 1 DEB

Satellite information

Favourite Embed

Satellite Type and Status

DEBRISIN ORBIT

Key statistics

Satellite DELTA 1 DEB at a glance.

Uptime

18289

Days in orbit

Revolutions

≈ 13.6

Per day

Orbit

SSO

Sun Synchronous Orbit

Inclination

99.9

Latest

Satellite identification and parameters

Extended collection of information and parameters for DELTA 1 DEB.

Object identification

Identified? True

Debris? True

Object name: DELTA 1 DEB

International designator: 1975-052FF

Object number (NORAD): 21471

Object ID (CCSDS): 21471

Country: UNITED STATES OF AMERICA (US)

Current information (Y/N): Y

RCS size: SMALL

Orbital parameters

Period: 106.092 minutes

Inclination: 99.9133 deg

SMA: 7423.611 km

Apoapsis: 1231.321 km

Periapsis: 859.632 km

RAAN: 336.1219 deg

Eccentricy: 0.0250342

Argument of periapsis: 132.8144 deg

Mean anomaly: 17.715 deg

Mean motion: 13.57312699 rev/day

Mean motion (dot): 0.00000378 rev/day2

B* drag term: 0.00048198 1/REarth

Two-line elements (TLE)

Creation date: July 6, 2025, 10:36 p.m.

Reference frame: TEME

Reference center: EARTH

Epoch: July 6, 2025, 9:51 p.m. UTC

TLE line 0: 0 DELTA 1 DEB

TLE line 1: 1 21471U 75052FF 25187.91104863 .00000378 00000-0 48198-3 0 9990

TLE line 2: 2 21471 99.9133 336.1219 0250342 132.8144 17.7150 13.57312699689948

Live tracking on map

Real-time ground track for satellite DELTA 1 DEB.

In-orbit conjunctions

A list of the most updated potential collisions computed for object DELTA 1 DEB.

Target Orbit TCA Probability of collision Miss distance Type
NADEZHDA 1 LEO 2025-01-02 14:42:06 0.0001941087 175.0 (m) PAYLOAD
CZ-6A DEB SSO 2024-07-23 15:25:58 0.000158122 170.0 (m) DEBRIS

Associated space launch

Experimental meteorological satellite

DELTA 1 DEB was lifted into orbit during the mission ‘Delta 2910 | Nimbus 6’, on board a Delta 2910 space rocket.

The launch took place on June 12, 1975, 8:12 a.m. from Space Launch Complex 2W.

For more information about the launch, click the button.

Launch to space Delta 2910 | Nimbus 6
Delta 2910 | Nimbus 6

Agency: N/A

Status: Launch Successful

Launch date: June 12, 1975, 8:12 a.m. UTC

Rocket: Delta 2910

Launch pad: Space Launch Complex 2W

Location: Vandenberg SFB, CA, USA

...

Latest news about this satellite

There are no fresh news available about this satellite. Check back as we update our databases every day.


Newsletter sign-up

Weekly statistics, charts and insights to help you stay on top of the space industry.